[[{"header":{"parameterUnit":"m.s-1","parameterCategory":1,"la1":30.2991,"la2":30.254,"lo1":-89.0895,"lo2":-89.0444,"dy":0.0017,"dx":0.0017,"nx":28,"ny":28,"refTime":"2025-08-01T21:00:00:Z","depth":0,"parameterNumber":2,"parameterNumberName":"U-component_of_WINDS"},"data":[0,0,0,0,0,0,0,0,0,0,0,0,0,0,0,0,0,0,0,0,0,0,0,0,0,0,0,0,0,0,0,0,0,0,0,0,0,0,0,0,0,0,0,0,0,0,0,0,0,0,0,0,0,0,0,0,0,0,3.0919,3.092,0,3.0991,3.0992,3.0992,3.0904,3.09,3.0897,3.0894,3.0967,3.0972,3.0976,0,0,0,0,0,0,0,0,0,0,0,0,0,3.0703,3.0708,3.0919,3.092,3.092,3.0991,3.0992,3.0993,3.0904,3.09,3.0896,3.0892,3.0965,3.0971,3.0977,0,0,0,0,0,0,0,0,0,0,0,0,0,3.0788,3.0709,3.0918,3.0885,3.0883,3.099,3.0992,3.0993,3.0905,3.09,3.0895,3.0891,3.0963,3.097,3.0978,3.1122,0,0,3.1001,3.1004,0,0,0,0,0,0,0,0,3.0784,3.0796,3.0889,3.0887,3.0885,3.0933,3.0942,3.1036,3.0906,3.0896,3.0894,3.0888,3.0959,3.0967,3.0991,3.1125,3.1128,3.1001,3.1006,3.1009,3.1011,0,0,0,0,0,0,0,3.0778,3.0793,3.0947,3.089,3.0888,3.0866,3.0872,3.096,3.0954,3.0897,3.0891,3.09,3.0957,3.0984,3.0992,3.1129,3.1001,3.1008,3.1012,3.1015,3.1385,3.139,0,0,0,0,0,0,3.0776,3.0788,3.0945,3.0949,3.0821,3.0874,3.0881,3.0923,3.0953,3.0953,3.0905,3.0896,3.0974,3.0984,3.0994,3.1164,3.1009,3.1016,3.102,3.1379,3.1386,3.1392,0,0,0,0,0,0,3.0772,3.0791,3.0942,3.0867,3.0885,3.0883,3.093,3.0927,3.0953,3.0959,3.0958,3.0933,3.097,3.0984,3.1091,3.1165,3.1019,3.1026,3.1373,3.1381,3.1389,3.1505,0,0,0,0,0,0,3.0766,3.079,3.0845,3.0869,3.0889,3.1038,3.0935,3.0932,3.0966,3.0956,3.0985,3.0985,3.0968,3.108,3.1098,3.1173,3.1032,3.1366,3.1377,3.1386,3.1495,3.1516,3.1535,0,0,0,0,0,3.0759,3.0875,3.0848,3.0867,3.0958,3.1042,3.1053,3.1031,3.0973,3.1028,3.1032,3.0984,3.1155,3.1092,3.1111,3.119,3.1361,3.1374,3.1385,3.1486,3.1512,3.1534,0,0,0,0,0,0,3.0859,3.0877,3.0848,3.0975,3.1008,3.1027,3.1095,3.106,3.1109,3.1097,3.1067,3.1074,3.1188,3.1199,3.1129,3.133,3.1248,3.1265,3.1318,3.1343,3.1363,3.1357,3.1038,0,0,0,0,0,3.0896,3.0963,3.0976,3.1087,3.1105,3.1098,3.1134,3.1114,3.1146,3.1159,3.117,3.1203,3.1264,3.1304,3.1361,3.1497,3.1501,3.156,3.158,3.1597,3.1611,3.1683,3.1709,3.1431,3.1431,3.1431,0,0,3.0973,3.0991,3.1035,3.1108,3.113,3.12,3.111,3.1188,3.1239,3.117,3.1272,3.1282,3.1316,3.1438,3.1492,3.1451,3.1689,3.1612,3.1625,3.163,3.1698,3.1724,3.1747,3.1439,3.1438,3.1436,0,0,3.1148,3.1169,3.1264,3.1289,3.1325,3.1319,3.1342,3.1367,3.1371,3.1473,3.1423,3.1483,3.1589,3.1615,3.1643,3.1829,3.1787,3.1848,3.1952,3.2023,3.2044,3.2064,3.2129,3.2153,3.1863,3.1863,3.1863,0,3.1238,3.1342,3.1317,3.1399,3.1431,3.1374,3.1469,3.1494,3.1547,3.157,3.1524,3.1655,3.1675,3.1801,3.1847,3.1871,3.1896,3.1844,3.2043,3.2062,3.208,3.2142,3.2166,3.187,3.1869,3.1869,3.1868,0,3.1451,3.1524,3.1596,3.1648,3.169,3.1778,3.1766,3.181,3.1787,3.1787,3.189,3.1912,3.1971,3.2,3.1978,3.2124,3.2097,3.2048,3.1965,3.2114,3.2171,3.2195,3.188,3.1878,3.1876,3.1874,0,0,3.169,3.1728,3.1755,3.1778,3.1813,3.1869,3.1954,3.2013,3.2051,3.209,3.216,3.2251,3.2205,3.2237,3.2217,3.228,3.2424,3.2222,3.2223,3.2258,3.2585,3.262,3.2648,3.2398,3.2402,3.2406,3.2581,0,3.1864,3.2012,3.1992,3.2134,3.22,3.2147,3.2221,3.2251,3.2254,3.231,3.2312,3.2376,3.2312,3.2331,3.239,3.2394,3.2489,3.2381,3.2461,3.2464,3.2452,3.2678,3.2716,3.2881,3.2604,3.2608,3.261,0,3.2087,3.2134,3.2283,3.2308,3.2335,3.2402,3.2454,3.2509,3.2541,3.2538,3.2574,3.2544,3.2628,3.2545,3.2661,3.2589,3.262,3.2628,3.2633,3.2638,3.2545,3.2688,3.2933,3.2957,3.2646,3.2643,3.264,0,3.2245,3.2345,3.2446,3.2468,3.25,3.2549,3.2564,3.2592,3.2629,3.2674,3.2697,3.2752,3.2782,3.2825,3.281,3.2751,3.2929,3.2844,3.2928,3.2928,3.2966,3.2963,3.3218,3.299,3.2989,3.2989,3.2988,0,3.244,3.2533,3.2518,3.258,3.2682,3.2659,3.276,3.2769,3.2795,3.2857,3.2815,3.2875,3.2852,3.2911,3.29,3.2997,3.3011,3.301,3.3006,3.3013,3.3013,3.3032,3.302,3.2995,3.2994,3.2993,3.2992,0,3.2633,3.2626,3.2733,3.2756,3.2763,3.2837,3.2856,3.2914,3.2914,3.2994,3.3011,3.301,3.3076,3.3066,3.314,3.3133,3.3253,3.3236,3.3242,3.3238,3.3321,3.3313,3.3595,3.363,3.3381,3.3383,3.3386,0,3.2757,3.2827,3.2857,3.2896,3.2915,3.2979,3.3016,3.2996,3.3036,3.3079,3.3132,3.3195,3.3244,3.3353,3.3358,3.3414,3.3397,3.3492,3.3405,3.3409,3.3396,3.3391,3.3398,3.3508,3.3511,3.3514,3.3515,0,3.2978,3.2972,3.3027,3.3081,3.3127,3.3168,3.3206,3.324,3.3224,3.3271,3.3338,3.3377,3.3452,3.3515,3.3567,3.3583,3.3547,3.3543,3.3565,3.3572,3.3572,3.3572,3.3287,3.3536,3.3534,3.3533,3.3532,3.3531,3.3139,3.3198,3.3229,3.3292,3.3318,3.3354,3.341,3.3416,3.3472,3.3532,3.3517,3.3594,3.3624,3.3692,3.3713,3.3772,3.3737,3.3769,3.3777,3.3785,3.3794,3.3565,3.3782,3.3781,3.3781,3.378,3.378,0,3.3357,3.3374,3.3432,3.3486,3.3535,3.3498,3.3537,3.3581,3.3649,3.3681,3.373,3.3807,3.3868,3.3879,3.3936,3.3981,3.3966,3.3997,3.3992,3.3996,3.3823,3.3797,3.4008,3.4008,3.4008,3.4008,3.4008,3.4008,3.3476,3.3574,3.3571,3.3682,3.3698,3.3773,3.3799,3.3832,3.3857,3.3945,3.3996,3.4002,3.4026,3.4085,3.4138,3.414,3.4162,3.4199,3.4195,3.4032,3.4009,3.3987,3.3963,3.4205,3.4205,3.4363,3.4364,3.4365]},{"header":{"parameterUnit":"m.s-1","parameterCategory":1,"la1":30.2991,"la2":30.254,"lo1":-89.0895,"lo2":-89.0444,"dy":0.0017,"dx":0.0017,"nx":28,"ny":28,"refTime":"2025-08-01T21:00:00:Z","depth":0,"parameterNumber":3,"parameterNumberName":"V-component_of_WINDS"},"data":[0,0,0,0,0,0,0,0,0,0,0,0,0,0,0,0,0,0,0,0,0,0,0,0,0,0,0,0,0,0,0,0,0,0,0,0,0,0,0,0,0,0,0,0,0,0,0,0,0,0,0,0,0,0,0,0,0,0,0.3617,0.3618,0,0.3699,0.37,0.37,0.3681,0.368,0.3678,0.3677,0.3766,0.3769,0.3773,0,0,0,0,0,0,0,0,0,0,0,0,0,0.345,0.3454,0.3617,0.3618,0.3619,0.3698,0.37,0.3701,0.3681,0.368,0.3678,0.3676,0.3764,0.3769,0.3773,0,0,0,0,0,0,0,0,0,0,0,0,0,0.3527,0.3455,0.3617,0.3619,0.362,0.3698,0.37,0.3701,0.3682,0.3679,0.3677,0.3675,0.3763,0.3768,0.3774,0.3857,0,0,0.3792,0.3794,0,0,0,0,0,0,0,0,0.3522,0.3533,0.3618,0.3619,0.362,0.3677,0.3673,0.3754,0.3682,0.3659,0.3676,0.3674,0.3738,0.3746,0.3767,0.3861,0.3865,0.3792,0.3796,0.3798,0.38,0,0,0,0,0,0,0,0.3517,0.3529,0.365,0.3619,0.3621,0.3618,0.3626,0.3688,0.3711,0.3661,0.3659,0.3669,0.3739,0.3761,0.3769,0.3866,0.3792,0.3797,0.3801,0.3803,0.4033,0.4035,0,0,0,0,0,0,0.351,0.3525,0.3647,0.3652,0.3564,0.3622,0.3632,0.3661,0.371,0.3715,0.3671,0.3668,0.3752,0.3762,0.3772,0.3872,0.3798,0.3804,0.3807,0.403,0.4033,0.4036,0,0,0,0,0,0,0.3506,0.3521,0.3644,0.3588,0.3603,0.3628,0.3662,0.3664,0.3687,0.3718,0.3722,0.3689,0.3751,0.3764,0.3835,0.3875,0.3806,0.3811,0.4027,0.4031,0.4035,0.4074,0,0,0,0,0,0,0.3502,0.352,0.3551,0.3589,0.3606,0.3705,0.3664,0.3668,0.3696,0.3693,0.3736,0.3742,0.375,0.3827,0.3841,0.3882,0.3816,0.4024,0.4029,0.4034,0.4069,0.4078,0.4086,0,0,0,0,0,0.3496,0.356,0.3552,0.3567,0.3645,0.3707,0.3718,0.3724,0.3699,0.3731,0.3751,0.374,0.3868,0.3834,0.385,0.3893,0.4021,0.4027,0.4033,0.4065,0.4077,0.4086,0,0,0,0,0,0,0.3528,0.3565,0.3557,0.3635,0.3668,0.3704,0.3744,0.3737,0.3779,0.3774,0.3783,0.3793,0.3866,0.3887,0.3849,0.3976,0.3941,0.3951,0.396,0.3971,0.398,0.3974,0.3821,0,0,0,0,0,0.3543,0.3589,0.362,0.3685,0.3702,0.372,0.3748,0.375,0.3785,0.38,0.3825,0.3861,0.3909,0.3941,0.3987,0.4071,0.4081,0.4108,0.4117,0.4124,0.4133,0.4179,0.4192,0.4056,0.4056,0.4056,0,0,0.3578,0.3603,0.3632,0.3692,0.3718,0.3767,0.3732,0.3785,0.3822,0.3808,0.3877,0.3897,0.3938,0.4016,0.4052,0.4036,0.4172,0.4132,0.4137,0.4142,0.4186,0.4199,0.4211,0.406,0.4059,0.4058,0,0,0.3664,0.3687,0.3745,0.3771,0.3809,0.382,0.3834,0.3871,0.3883,0.3952,0.3942,0.3987,0.407,0.4099,0.4125,0.4221,0.4213,0.4236,0.4282,0.4327,0.4338,0.4347,0.4382,0.4395,0.4244,0.4244,0.4244,0,0.3702,0.3773,0.3776,0.3829,0.3856,0.3843,0.3902,0.3928,0.3981,0.4001,0.3981,0.4084,0.411,0.4195,0.4218,0.4239,0.4256,0.4232,0.4336,0.4345,0.4354,0.4388,0.4401,0.4246,0.4246,0.4246,0.4246,0,0.3818,0.3867,0.3909,0.3957,0.3989,0.4045,0.4058,0.409,0.4089,0.4103,0.4173,0.4205,0.4257,0.4277,0.4277,0.4362,0.435,0.4333,0.4299,0.437,0.4401,0.4414,0.425,0.4249,0.4248,0.4248,0,0,0.3929,0.3976,0.3992,0.4014,0.4054,0.4094,0.4149,0.4198,0.4225,0.4262,0.431,0.4379,0.4363,0.4392,0.4395,0.4435,0.4509,0.4413,0.4414,0.443,0.4605,0.4619,0.4633,0.4503,0.4505,0.4507,0.4602,0,0.402,0.4115,0.4119,0.4207,0.4253,0.4241,0.4289,0.432,0.4334,0.4377,0.4393,0.4442,0.4417,0.4434,0.4472,0.4492,0.4545,0.4485,0.4549,0.4552,0.4541,0.465,0.4665,0.4753,0.4614,0.4616,0.4618,0,0.4139,0.4176,0.4268,0.4302,0.4321,0.4364,0.4409,0.4449,0.4484,0.4492,0.4523,0.4521,0.4579,0.4541,0.4622,0.4581,0.4608,0.4621,0.4625,0.4633,0.459,0.4662,0.4781,0.4794,0.4637,0.4636,0.4634,0,0.4212,0.4285,0.435,0.4369,0.4409,0.444,0.4458,0.4491,0.4519,0.4559,0.4578,0.4624,0.465,0.4687,0.4697,0.4669,0.4778,0.4741,0.4788,0.4788,0.4813,0.4812,0.4939,0.4828,0.4828,0.4827,0.4827,0,0.4313,0.4371,0.4383,0.4423,0.4486,0.449,0.4554,0.457,0.4599,0.4643,0.4636,0.4677,0.4688,0.4732,0.4741,0.4807,0.4819,0.4827,0.4829,0.4829,0.4828,0.4848,0.4842,0.4831,0.483,0.4829,0.4829,0,0.4406,0.4416,0.4486,0.4517,0.4527,0.4572,0.46,0.4639,0.4651,0.4707,0.472,0.4741,0.4792,0.4805,0.4868,0.4873,0.4952,0.4947,0.4939,0.494,0.4986,0.4982,0.5132,0.5152,0.5026,0.5027,0.5028,0,0.4471,0.4514,0.455,0.4577,0.4597,0.4642,0.4671,0.4676,0.4706,0.4749,0.4783,0.4833,0.4873,0.4956,0.4978,0.5025,0.5023,0.5072,0.503,0.5028,0.5025,0.5023,0.5028,0.5081,0.5082,0.5083,0.5084,0,0.4586,0.4588,0.4629,0.4671,0.4705,0.4739,0.4772,0.4795,0.4805,0.484,0.4891,0.4922,0.4985,0.5035,0.5082,0.5103,0.5096,0.5096,0.511,0.5111,0.5105,0.511,0.4962,0.5094,0.5093,0.5092,0.5091,0.5091,0.4668,0.4705,0.4735,0.4781,0.4805,0.4836,0.4874,0.4889,0.4932,0.4981,0.4982,0.5038,0.5072,0.5135,0.5158,0.5203,0.5189,0.5208,0.5213,0.5218,0.5223,0.5096,0.5212,0.5212,0.5211,0.5211,0.5211,0,0.4782,0.4801,0.4842,0.4887,0.4923,0.4909,0.4945,0.4976,0.5025,0.5056,0.5095,0.5154,0.5203,0.5227,0.5275,0.5307,0.5305,0.5319,0.5318,0.5323,0.5232,0.5216,0.532,0.532,0.532,0.532,0.532,0.532,0.4847,0.491,0.4915,0.4991,0.5009,0.5063,0.5084,0.5112,0.5137,0.5203,0.5242,0.5256,0.5285,0.5335,0.5379,0.5385,0.5404,0.5421,0.5425,0.534,0.5329,0.5319,0.5304,0.5424,0.5424,0.5512,0.5513,0.5513]}]]